Chicopee, MA

3:36 AM EDT on October 19, 2017 (GMT -0400)
Westover Air Reserve Base / Metropolitan Airport

Weather History for KCEF - September, 2013

Change the Weather History Date:

Sunday, September 8, 2013

  Actual Average Record
Temperature  
Mean Temperature 62 °F -  
Max Temperature 75 °F 74 °F 95 °F (2015)
Min Temperature 44 °F 53 °F 44 °F (2013)
Degree Days  
Heating Degree Days 3    
Growing Degree Days 12 (Base 50)    
Moisture  
Dew Point 53 °F    
Average Humidity 66    
Maximum Humidity 96    
Minimum Humidity 37    
Precipitation  
Precipitation 0.00 in - - ()
Sea Level Pressure  
Sea Level Pressure 29.88 in    
Wind  
Wind Speed 7 mph (NW)    
Max Wind Speed 21 mph    
Max Gust Speed 30 mph    
Visibility 10 miles    
Events      
Averages and records for this station are not official NWS values.
T = Trace of Precipitation, MM = Missing Value Source: NWS Daily Summary

Daily Weather History Graph

Daily Weather History Graph

Search for Another Location

Airport or City:

Trip Planner

Search our weather history database for the weather conditions in past years. The results will help you decide how hot, cold, wet, or windy it might be!

Date:

Astronomy

Sep. 08, 2013 Rise Set
Actual Time 6:23 AM EDT 7:11 PM EDT
Civil Twilight 5:54 AM EDT 7:39 PM EDT
Nautical Twilight 5:20 AM EDT 8:13 PM EDT
Astronomical Twilight 4:45 AM EDT 8:48 PM EDT
Moon 9:42 AM EDT (9/8) 8:40 PM EDT (9/8)
Length of Visible Light 13h 45m
Length of Day
12h 48m
Waxing Crescent, 11% of the Moon is Illuminated
Sep 8
Waxing Crescent
Sep 12
First Quarter
Sep 19
Full
Sep 26
Last Quarter
Oct 4
New

Hourly Weather History & Observations

Time (EDT) Temp. Windchill Dew Point Humidity Pressure Visibility Wind Dir Wind Speed Gust Speed Precip Events Conditions
12:58 AM 63.1 °F - 56.5 °F 79% 29.88 in 10.0 mi SSE 3.5 mph - N/A   Overcast
1:58 AM 62.4 °F - 58.6 °F 87% 29.87 in 10.0 mi South 2.3 mph - N/A   Overcast
2:46 AM 62.6 °F - 59.0 °F 88% 29.82 in 10.0 mi South 3.5 mph - N/A   Light Drizzle
2:56 AM 62.6 °F - 59.0 °F 88% 29.81 in 10.0 mi South 6.9 mph - N/A   Scattered Clouds
2:58 AM 62.6 °F - 59.0 °F 88% 29.83 in 10.0 mi South 6.9 mph - 0.00 in   Scattered Clouds
3:58 AM 60.6 °F - 59.4 °F 96% 29.83 in 10.0 mi Calm Calm - N/A   Overcast
4:58 AM 62.1 °F - 61.0 °F 96% 29.82 in 10.0 mi SW 3.5 mph - N/A   Overcast
5:58 AM 62.4 °F - 60.6 °F 94% 29.81 in 10.0 mi SSW 4.6 mph - N/A   Overcast
6:58 AM 61.9 °F - 60.4 °F 95% 29.83 in 10.0 mi Calm Calm - N/A   Mostly Cloudy
7:58 AM 64.2 °F - 61.0 °F 89% 29.82 in 10.0 mi SSE 3.5 mph - N/A   Overcast
8:58 AM 67.8 °F - 59.2 °F 74% 29.82 in 10.0 mi WSW 5.8 mph - N/A   Overcast
9:37 AM 69.8 °F - 60.8 °F 73% 29.79 in 10.0 mi West 6.9 mph - N/A   Scattered Clouds
9:53 AM 69.8 °F - 60.8 °F 73% 29.80 in 10.0 mi WNW 5.8 mph - N/A   Mostly Cloudy
9:58 AM 70.2 °F - 60.6 °F 72% 29.83 in 10.0 mi NW 8.1 mph - N/A   Mostly Cloudy
10:58 AM 70.2 °F - 60.6 °F 72% 29.83 in 10.0 mi Variable 4.6 mph - N/A   Overcast
11:36 AM 73.4 °F - 60.8 °F 65% 29.80 in 10.0 mi NW 18.4 mph 23.0 mph N/A   Scattered Clouds
11:58 AM 74.3 °F - 60.1 °F 61% 29.82 in 10.0 mi NW 18.4 mph 28.8 mph N/A   Partly Cloudy
12:58 PM 74.1 °F - 59.5 °F 60% 29.83 in 10.0 mi NW 19.6 mph 25.3 mph N/A   Partly Cloudy
1:01 PM 75.2 °F - 59.0 °F 57% 29.82 in 10.0 mi North 20.7 mph 26.5 mph N/A   Partly Cloudy
1:38 PM 73.4 °F - 53.6 °F 50% 29.84 in 10.0 mi NW 18.4 mph 23.0 mph N/A   Clear
1:58 PM 74.1 °F - 50.0 °F 43% 29.86 in 10.0 mi NW 18.4 mph 29.9 mph N/A   Clear
2:21 PM 73.4 °F - 48.2 °F 41% 29.85 in 10.0 mi North 17.3 mph - N/A   Clear
2:58 PM 73.0 °F - 45.5 °F 37% 29.88 in 10.0 mi NW 16.1 mph 19.6 mph N/A   Clear
3:09 PM 73.4 °F - 46.4 °F 38% 29.86 in 10.0 mi NNW 13.8 mph 24.2 mph N/A   Clear
3:24 PM 73.4 °F - 46.4 °F 38% 29.86 in 10.0 mi North 13.8 mph 19.6 mph N/A   Clear
3:29 PM 73.4 °F - 46.4 °F 38% 29.87 in 10.0 mi NW 13.8 mph 19.6 mph N/A   Clear
3:58 PM 72.7 °F - 46.2 °F 39% 29.89 in 10.0 mi NNW 13.8 mph 18.4 mph N/A   Partly Cloudy
4:58 PM 71.2 °F - 44.6 °F 38% 29.91 in 10.0 mi NNW 10.4 mph - N/A   Clear
5:58 PM 69.6 °F - 43.3 °F 39% 29.94 in 10.0 mi North 13.8 mph 17.3 mph N/A   Clear
6:58 PM 63.3 °F - 43.9 °F 49% 29.98 in 10.0 mi NE 6.9 mph - N/A   Clear
7:58 PM 57.7 °F - 42.6 °F 57% 30.02 in 10.0 mi North 5.8 mph - N/A   Clear
8:58 PM 55.4 °F - 43.2 °F 63% 30.06 in 10.0 mi NNE 3.5 mph - N/A   Clear
9:58 PM 51.8 °F - 44.2 °F 75% 30.09 in 10.0 mi North 2.3 mph - N/A   Clear
10:58 PM 49.6 °F - 44.4 °F 82% 30.12 in 10.0 mi Calm Calm - N/A   Clear
11:58 PM 44.4 °F 42.9 °F 42.1 °F 91% 30.13 in 10.0 mi NNE 3.5 mph - N/A   Clear